Istanbul, Turkey

12:11 PM +03 on May 25, 2017 (GMT +0300)
Ataturk

Weather History for LTBA - January, 2013

Change the Weather History Date:

Tuesday, January 15, 2013

  Actual Average Record
Temperature  
Mean Temperature 46 °F -  
Max Temperature 56 °F 46 °F 59 °F (2009)
Min Temperature 37 °F 37 °F 30 °F (2012)
Degree Days  
Heating Degree Days 18    
Moisture  
Dew Point 38 °F    
Average Humidity 69    
Maximum Humidity 93    
Minimum Humidity 38    
Precipitation  
Precipitation 0.00 in - - ()
Sea Level Pressure  
Sea Level Pressure 30.26 in    
Wind  
Wind Speed 4 mph ()    
Max Wind Speed 9 mph    
Max Gust Speed -    
Visibility 3.3 miles    
Events      
Averages and records for this station are not official NWS values.
T = Trace of Precipitation, MM = Missing Value Source: Averaged Metar Reports

Daily Weather History Graph

Daily Weather History Graph

Search for Another Location

Airport or City:

Trip Planner

Search our weather history database for the weather conditions in past years. The results will help you decide how hot, cold, wet, or windy it might be!

Date:

Astronomy

Jan. 15, 2013 Rise Set
Actual Time 7:27 AM EET 5:01 PM EET
Civil Twilight 6:57 AM EET 5:31 PM EET
Nautical Twilight 6:23 AM EET 6:05 PM EET
Astronomical Twilight 5:50 AM EET 6:38 PM EET
Moon 9:20 AM EET (1/15) 9:32 PM EET (1/15)
Length of Visible Light 10h 34m
Length of Day
9h 33m
Waxing Crescent, 16% of the Moon is Illuminated
Jan 15
Waxing Crescent
Jan 19
First Quarter
Jan 27
Full
Feb 3
Last Quarter
Feb 10
New

Hourly Weather History & Observations

Time (EET) Temp. Windchill Dew Point Humidity Pressure Visibility Wind Dir Wind Speed Gust Speed Precip Events Conditions
12:20 AM 41.0 °F - 37.4 °F 87% 30.33 in - Calm Calm - N/A   Clear
12:50 AM 41.0 °F - 37.4 °F 87% 30.33 in 3.7 mi Calm Calm - N/A   Unknown
1:20 AM 44.6 °F - 41.0 °F 87% 30.33 in 3.7 mi Variable 2.3 mph - N/A   Unknown
1:50 AM 41.0 °F - 35.6 °F 81% 30.33 in 2.5 mi Variable 1.2 mph - N/A   Mist
2:00 AM 42 °F - 35 °F 70% 30.35 in 2 mi ENE 1.2 mph - -   Mist
2:20 AM 41.0 °F - 35.6 °F 81% 30.33 in 2.5 mi Calm Calm - N/A   Mist
2:50 AM 39.2 °F - 35.6 °F 87% 30.33 in 2.5 mi Variable 2.3 mph - N/A   Mist
3:20 AM 42.8 °F 40.1 °F 39.2 °F 87% 30.30 in 2.5 mi East 4.6 mph - N/A   Mist
3:50 AM 42.8 °F 40.1 °F 39.2 °F 87% 30.30 in 2.5 mi East 4.6 mph - N/A   Mist
4:20 AM 42.8 °F - 39.2 °F 87% 30.30 in 2.5 mi Variable 2.3 mph - N/A   Mist
4:50 AM 39.2 °F - 35.6 °F 87% 30.30 in 2.5 mi Variable 2.3 mph - N/A   Mist
5:20 AM 41.0 °F - 39.2 °F 93% 30.30 in 2.5 mi Variable 2.3 mph - N/A   Mist
5:50 AM 41.0 °F 39.0 °F 39.2 °F 93% 30.30 in 2.5 mi East 3.5 mph - N/A   Mist
6:20 AM 42.8 °F 40.1 °F 39.2 °F 87% 30.30 in 2.5 mi East 4.6 mph - N/A   Mist
6:50 AM 42.8 °F 41.1 °F 37.4 °F 81% 30.30 in 3.7 mi ESE 3.5 mph - N/A   Unknown
7:20 AM 44.6 °F 41.4 °F 37.4 °F 76% 30.30 in 3.7 mi East 5.8 mph - N/A   Unknown
7:50 AM 44.6 °F 42.2 °F 37.4 °F 76% 30.30 in 4.3 mi East 4.6 mph - N/A   Unknown
8:00 AM 44 °F - 37 °F 69% 30.32 in 4 mi East 4.6 mph - -   Mist
8:20 AM 46.4 °F 44.3 °F 37.4 °F 71% 30.30 in - East 4.6 mph - N/A   Clear
8:50 AM 48.2 °F - 39.2 °F 71% 30.30 in - East 6.9 mph - N/A   Clear
9:20 AM 50.0 °F - 39.2 °F 66% 30.30 in - ESE 8.1 mph - N/A   Clear
9:50 AM 50.0 °F - 37.4 °F 62% 30.30 in - SE 9.2 mph - N/A   Clear
10:20 AM 50.0 °F - 37.4 °F 62% 30.30 in - SE 9.2 mph - N/A   Clear
10:50 AM 51.8 °F - 37.4 °F 58% 30.30 in - ESE 8.1 mph - N/A   Clear
11:20 AM 51.8 °F - 37.4 °F 58% 30.30 in - ESE 8.1 mph - N/A   Clear
11:50 AM 51.8 °F - 35.6 °F 54% 30.27 in - ESE 6.9 mph - N/A   Clear
12:20 PM 53.6 °F - 37.4 °F 54% 30.27 in - East 8.1 mph - N/A   Clear
12:50 PM 53.6 °F - 37.4 °F 54% 30.27 in - ESE 5.8 mph - N/A   Clear
1:20 PM 53.6 °F - 35.6 °F 51% 30.24 in - ESE 6.9 mph - N/A   Clear
1:50 PM 53.6 °F - 37.4 °F 54% 30.24 in - ESE 6.9 mph - N/A   Clear
2:00 PM 54 °F - 36 °F 38% 30.25 in 6 mi ESE 6.9 mph - -  
2:20 PM 53.6 °F - 37.4 °F 54% 30.21 in - ESE 6.9 mph - N/A   Clear
2:50 PM 55.4 °F - 33.8 °F 44% 30.21 in - SE 5.8 mph - N/A   Clear
3:20 PM 55.4 °F - 35.6 °F 47% 30.24 in - SE 5.8 mph - N/A   Clear
3:50 PM 53.6 °F - 37.4 °F 54% 30.21 in - ESE 5.8 mph - N/A   Clear
4:20 PM 53.6 °F - 37.4 °F 54% 30.21 in - ESE 5.8 mph - N/A   Clear
4:50 PM 50.0 °F - 39.2 °F 66% 30.21 in - East 4.6 mph - N/A   Clear
5:20 PM 50.0 °F - 39.2 °F 66% 30.21 in - East 3.5 mph - N/A   Clear
6:20 PM 50.0 °F - 39.2 °F 66% 30.21 in - East 5.8 mph - N/A   Clear
6:50 PM 50.0 °F - 39.2 °F 66% 30.21 in - East 4.6 mph - N/A   Clear
7:20 PM 53.6 °F - 39.2 °F 58% 30.21 in - East 6.9 mph - N/A   Clear
7:50 PM 50.0 °F - 39.2 °F 66% 30.21 in - East 5.8 mph - N/A   Clear
8:00 PM 50 °F - 40 °F 58% 30.22 in 6 mi East 5.8 mph - -  
8:20 PM 51.8 °F - 41.0 °F 67% 30.21 in - Variable 4.6 mph - N/A   Clear
8:50 PM 51.8 °F - 39.2 °F 62% 30.18 in - East 6.9 mph - N/A   Clear
9:20 PM 50.0 °F - 39.2 °F 66% 30.18 in - East 6.9 mph - N/A   Clear
9:50 PM 48.2 °F - 39.2 °F 71% 30.18 in - East 8.1 mph - N/A   Clear
10:20 PM 50.0 °F - 39.2 °F 66% 30.15 in - ENE 5.8 mph - N/A   Clear
10:50 PM 48.2 °F - 39.2 °F 71% 30.15 in - East 6.9 mph - N/A   Clear
11:20 PM 48.2 °F - 39.2 °F 71% 30.15 in - East 6.9 mph - N/A   Clear
11:50 PM 48.2 °F - 39.2 °F 71% 30.15 in - East 8.1 mph - N/A   Clear